RYR31KK LICJ-LIMJ

Flight info

Callsign RYR31KK
Flight time 1h 21m
Altitude 32000
Route LURON DCT RONAB DCT RUVIP DCT BETOT DCT POKAV DCT TINTO DCT VELAD DCT ELB DCT BETEN M729 IDONA
Aircraft B738/M-SDE2E3FGHIRWXY/LB1

Departure

Time 2026-04-28 06:02
Airport Falcone–Borsellino Airport (LICJ)

Arrival

Time 2026-04-28 07:24
Airport Genoa Cristoforo Colombo Airport (LIMJ)
Time Latitude Longitude Altitude Speed Heading
2026-04-28 05:15 38.18592 13.10861 64 ft 0 kts 247°
2026-04-28 05:42 38.18591 13.10860 64 ft 2 kts 247°
2026-04-28 05:42 38.18552 13.10809 57 ft 12 kts 211°
2026-04-28 05:42 38.18506 13.10718 60 ft 12 kts 247°
2026-04-28 05:42 38.18473 13.10618 59 ft 12 kts 247°
2026-04-28 05:43 38.18432 13.10528 60 ft 12 kts 217°
2026-04-28 05:43 38.18359 13.10486 59 ft 11 kts 199°
2026-04-28 05:43 38.18309 13.10412 56 ft 12 kts 247°
2026-04-28 05:43 38.18234 13.10364 57 ft 14 kts 197°
2026-04-28 05:44 38.18178 13.10258 57 ft 17 kts 247°
2026-04-28 05:44 38.18124 13.10100 57 ft 22 kts 246°
2026-04-28 05:44 38.18064 13.09921 63 ft 22 kts 247°
2026-04-28 05:44 38.18001 13.09733 65 ft 23 kts 246°
2026-04-28 05:45 38.17937 13.09547 65 ft 23 kts 247°
2026-04-28 05:45 38.17878 13.09366 60 ft 22 kts 248°
2026-04-28 05:45 38.17820 13.09190 71 ft 21 kts 246°
2026-04-28 05:45 38.17761 13.09020 62 ft 21 kts 247°
2026-04-28 05:46 38.17669 13.08887 63 ft 20 kts 218°
2026-04-28 05:46 38.17561 13.08783 63 ft 16 kts 216°
2026-04-28 05:46 38.17494 13.08777 63 ft 11 kts 128°
2026-04-28 05:46 38.17503 13.08864 60 ft 10 kts 68°
2026-04-28 05:47 38.17511 13.08889 69 ft 0 kts 68°
2026-04-28 05:47 38.17550 13.09011 67 ft 41 kts 68°
2026-04-28 05:47 38.17727 13.09560 68 ft 91 kts 66°
2026-04-28 05:47 38.18027 13.10434 65 ft 119 kts 65°
2026-04-28 05:48 38.18328 13.11325 60 ft 71 kts 66°
2026-04-28 05:48 38.18397 13.11524 69 ft 0 kts 65°
2026-04-28 05:48 38.18398 13.11527 69 ft 4 kts 65°
2026-04-28 05:48 38.18431 13.11619 65 ft 18 kts 65°
2026-04-28 05:49 38.18486 13.11776 67 ft 20 kts 67°
2026-04-28 05:49 38.18553 13.11879 64 ft 15 kts
2026-04-28 05:49 38.18599 13.11771 60 ft 16 kts 276°
2026-04-28 05:49 38.18611 13.11625 61 ft 17 kts 276°
2026-04-28 05:50 38.18588 13.11484 59 ft 16 kts 250°
2026-04-28 05:50 38.18545 13.11349 61 ft 17 kts 248°
2026-04-28 05:50 38.18494 13.11195 64 ft 20 kts 247°
2026-04-28 05:50 38.18434 13.11023 58 ft 22 kts 246°
2026-04-28 05:51 38.18375 13.10850 57 ft 21 kts 246°
2026-04-28 05:51 38.18318 13.10683 60 ft 20 kts 246°
2026-04-28 05:51 38.18262 13.10521 61 ft 20 kts 247°
2026-04-28 05:51 38.18209 13.10363 62 ft 19 kts 247°
2026-04-28 05:52 38.18157 13.10211 62 ft 18 kts 246°
2026-04-28 05:52 38.18107 13.10064 63 ft 18 kts 246°
2026-04-28 05:52 38.18059 13.09922 58 ft 17 kts 248°
2026-04-28 05:52 38.18015 13.09784 61 ft 17 kts 248°
2026-04-28 05:53 38.17972 13.09651 65 ft 16 kts 248°
2026-04-28 05:53 38.17930 13.09524 65 ft 15 kts 247°
2026-04-28 05:53 38.17902 13.09443 60 ft 15 kts 246°
2026-04-28 05:53 38.17861 13.09325 61 ft 14 kts 247°
2026-04-28 05:54 38.17824 13.09211 65 ft 14 kts 248°
2026-04-28 05:54 38.17802 13.09146 68 ft 0 kts 246°
2026-04-28 05:59 38.17796 13.09128 68 ft 6 kts 246°
2026-04-28 05:59 38.17772 13.09061 59 ft 10 kts 245°
2026-04-28 05:59 38.17745 13.08985 65 ft 9 kts 245°
2026-04-28 06:00 38.17704 13.08924 65 ft 9 kts 219°
2026-04-28 06:00 38.17655 13.08874 59 ft 9 kts 218°
2026-04-28 06:00 38.17608 13.08828 66 ft 9 kts 214°
2026-04-28 06:00 38.17558 13.08786 67 ft 8 kts 214°
2026-04-28 06:01 38.17505 13.08766 68 ft 8 kts 159°
2026-04-28 06:01 38.17492 13.08827 66 ft 8 kts 67°
2026-04-28 06:01 38.17494 13.08833 69 ft 4 kts 67°
2026-04-28 06:01 38.17578 13.09088 70 ft 67 kts 66°
2026-04-28 06:02 38.17858 13.09917 68 ft 135 kts 66°
2026-04-28 06:02 38.18295 13.11210 283 ft 170 kts 68°
2026-04-28 06:02 38.18750 13.12599 1054 ft 172 kts 66°
2026-04-28 06:02 38.19235 13.13988 1883 ft 173 kts 65°
2026-04-28 06:03 38.19760 13.15485 2147 ft 200 kts 66°
2026-04-28 06:03 38.20351 13.17222 2208 ft 227 kts 66°
2026-04-28 06:03 38.21039 13.19078 2346 ft 248 kts 58°
2026-04-28 06:03 38.22396 13.20605 2631 ft 264 kts 25°
2026-04-28 06:04 38.24077 13.21471 3353 ft 265 kts 21°
2026-04-28 06:04 38.25823 13.22324 4053 ft 267 kts 21°
2026-04-28 06:04 38.27538 13.23181 4726 ft 270 kts 21°
2026-04-28 06:04 38.29291 13.24075 5413 ft 272 kts 22°
2026-04-28 06:05 38.31054 13.24988 6050 ft 275 kts 22°
2026-04-28 06:05 38.32840 13.25927 6697 ft 279 kts 22°
2026-04-28 06:05 38.34630 13.26875 7445 ft 280 kts 22°
2026-04-28 06:05 38.36447 13.27847 8033 ft 285 kts 22°
2026-04-28 06:06 38.38286 13.28828 8711 ft 288 kts 22°
2026-04-28 06:06 38.40150 13.29808 9409 ft 291 kts 18°
2026-04-28 06:06 38.42147 13.30133 10062 ft 292 kts 353°
2026-04-28 06:06 38.44146 13.29542 10502 ft 304 kts 341°
2026-04-28 06:07 38.46229 13.28670 10668 ft 326 kts 340°
2026-04-28 06:07 38.48426 13.27695 11002 ft 340 kts 339°
2026-04-28 06:07 38.50679 13.26695 11613 ft 345 kts 339°
2026-04-28 06:07 38.52955 13.25696 12335 ft 346 kts 339°
2026-04-28 06:08 38.55239 13.24704 13059 ft 348 kts 339°
2026-04-28 06:08 38.57545 13.23710 13735 ft 352 kts 340°
2026-04-28 06:08 38.59886 13.22707 14397 ft 356 kts 340°
2026-04-28 06:08 38.62246 13.21699 15091 ft 359 kts 340°
2026-04-28 06:09 38.64597 13.20696 15745 ft 363 kts 340°
2026-04-28 06:09 38.67002 13.19671 16382 ft 366 kts 340°
2026-04-28 06:09 38.69433 13.18632 17003 ft 370 kts 340°
2026-04-28 06:09 38.71918 13.17570 17639 ft 374 kts 340°
2026-04-28 06:10 38.74394 13.16511 18251 ft 377 kts 340°
2026-04-28 06:10 38.76890 13.15442 18850 ft 380 kts 340°
2026-04-28 06:10 38.79377 13.14377 19418 ft 383 kts 340°
2026-04-28 06:10 38.81916 13.13289 19996 ft 386 kts 340°
2026-04-28 06:11 38.84472 13.12186 20565 ft 389 kts 338°
2026-04-28 06:11 38.86848 13.10553 21044 ft 390 kts 320°
2026-04-28 06:11 38.88883 13.08241 21601 ft 392 kts 316°
2026-04-28 06:11 38.90878 13.05843 22117 ft 394 kts 316°
2026-04-28 06:12 38.92881 13.03409 22591 ft 397 kts 316°
2026-04-28 06:12 38.94899 13.00956 23051 ft 401 kts 316°
2026-04-28 06:12 38.96934 12.98494 23520 ft 403 kts 316°
2026-04-28 06:12 38.98989 12.96021 24017 ft 405 kts 316°
2026-04-28 06:13 39.01055 12.93542 24418 ft 409 kts 316°
2026-04-28 06:13 39.03146 12.91039 24823 ft 412 kts 316°
2026-04-28 06:13 39.05244 12.88529 25261 ft 413 kts 316°
2026-04-28 06:13 39.07353 12.86006 25714 ft 414 kts 316°
2026-04-28 06:14 39.09467 12.83474 26124 ft 416 kts 316°
2026-04-28 06:14 39.11591 12.80928 26512 ft 418 kts 316°
2026-04-28 06:14 39.13728 12.78365 26915 ft 420 kts 316°
2026-04-28 06:14 39.15856 12.75810 27438 ft 417 kts 316°
2026-04-28 06:15 39.17975 12.73265 27981 ft 415 kts 316°
2026-04-28 06:15 39.20080 12.70734 28458 ft 413 kts 316°
2026-04-28 06:15 39.22181 12.68205 28886 ft 413 kts 316°
2026-04-28 06:15 39.24281 12.65674 29337 ft 412 kts 316°
2026-04-28 06:16 39.26373 12.63151 29794 ft 411 kts 316°
2026-04-28 06:16 39.28428 12.60671 30212 ft 410 kts 316°
2026-04-28 06:16 39.30530 12.58131 30653 ft 408 kts 316°
2026-04-28 06:16 39.32603 12.55627 31077 ft 407 kts 316°
2026-04-28 06:17 39.34644 12.53158 31429 ft 407 kts 316°
2026-04-28 06:17 39.36708 12.50658 31817 ft 406 kts 315°
2026-04-28 06:17 39.38771 12.48157 32055 ft 409 kts 315°
2026-04-28 06:18 39.42943 12.43092 32058 ft 411 kts 315°
2026-04-28 06:18 39.47070 12.38075 32059 ft 405 kts 315°
2026-04-28 06:19 39.51186 12.33063 32074 ft 407 kts 315°
2026-04-28 06:19 39.55325 12.28012 32070 ft 410 kts 315°
2026-04-28 06:20 39.59488 12.22924 32066 ft 412 kts 315°
2026-04-28 06:20 39.63664 12.17813 32064 ft 413 kts 315°
2026-04-28 06:21 39.67846 12.12685 32065 ft 414 kts 315°
2026-04-28 06:21 39.72024 12.07552 32064 ft 414 kts 315°
2026-04-28 06:22 39.76199 12.02414 32064 ft 413 kts 315°
2026-04-28 06:22 39.80364 11.97279 32063 ft 412 kts 315°
2026-04-28 06:23 39.84520 11.92149 32063 ft 411 kts 316°
2026-04-28 06:23 39.89207 11.87920 32066 ft 412 kts 334°
2026-04-28 06:24 39.94557 11.85219 32069 ft 412 kts 339°
2026-04-28 06:24 39.99897 11.82641 32075 ft 412 kts 338°
2026-04-28 06:25 40.05269 11.79958 32074 ft 413 kts 338°
2026-04-28 06:25 40.10633 11.77261 32077 ft 414 kts 338°
2026-04-28 06:26 40.16012 11.74560 32074 ft 414 kts 338°
2026-04-28 06:26 40.21395 11.71852 32074 ft 414 kts 338°
2026-04-28 06:27 40.26781 11.69136 32074 ft 415 kts 338°
2026-04-28 06:27 40.32163 11.66417 32074 ft 415 kts 338°
2026-04-28 06:28 40.37549 11.63692 32074 ft 414 kts 338°
2026-04-28 06:28 40.42933 11.60962 32081 ft 414 kts 338°
2026-04-28 06:29 40.48300 11.58232 32081 ft 413 kts 338°
2026-04-28 06:29 40.53658 11.55503 32084 ft 413 kts 338°
2026-04-28 06:30 40.59014 11.52771 32083 ft 413 kts 338°
2026-04-28 06:30 40.64327 11.50053 32083 ft 412 kts 338°
2026-04-28 06:31 40.69671 11.47318 32081 ft 412 kts 338°
2026-04-28 06:31 40.75009 11.44582 32084 ft 412 kts 338°
2026-04-28 06:32 40.80349 11.41838 32083 ft 411 kts 338°
2026-04-28 06:32 40.85677 11.39096 32083 ft 411 kts 338°
2026-04-28 06:33 40.91007 11.36351 32084 ft 411 kts 338°
2026-04-28 06:33 40.96335 11.33601 32083 ft 411 kts 338°
2026-04-28 06:34 41.01664 11.30846 32085 ft 411 kts 338°
2026-04-28 06:34 41.06991 11.28086 32084 ft 411 kts 338°
2026-04-28 06:35 41.12314 11.25323 32084 ft 411 kts 338°
2026-04-28 06:35 41.17646 11.22552 32081 ft 411 kts 338°
2026-04-28 06:36 41.22968 11.19780 32083 ft 411 kts 338°
2026-04-28 06:36 41.28286 11.17005 32083 ft 410 kts 338°
2026-04-28 06:37 41.33595 11.14230 32087 ft 410 kts 338°
2026-04-28 06:37 41.38893 11.11457 32093 ft 409 kts 338°
2026-04-28 06:38 41.44188 11.08680 32092 ft 409 kts 338°
2026-04-28 06:38 41.49478 11.05902 32092 ft 409 kts 338°
2026-04-28 06:39 41.54769 11.03120 32094 ft 409 kts 338°
2026-04-28 06:39 41.60059 11.00334 32093 ft 409 kts 338°
2026-04-28 06:40 41.65351 10.97540 32093 ft 409 kts 338°
2026-04-28 06:40 41.70612 10.94757 32092 ft 409 kts 338°
2026-04-28 06:41 41.75042 10.92411 32092 ft 409 kts 338°
2026-04-28 06:41 41.81192 10.89148 32093 ft 409 kts 338°
2026-04-28 06:42 41.86475 10.86340 32092 ft 409 kts 338°
2026-04-28 06:42 41.90906 10.83981 32093 ft 409 kts 338°
2026-04-28 06:43 41.96187 10.81163 32093 ft 409 kts 338°
2026-04-28 06:43 42.01478 10.78336 32094 ft 409 kts 338°
2026-04-28 06:44 42.06754 10.75514 32091 ft 408 kts 338°
2026-04-28 06:44 42.11986 10.72710 32090 ft 407 kts 338°
2026-04-28 06:45 42.17234 10.69890 32091 ft 406 kts 338°
2026-04-28 06:45 42.22478 10.67069 32092 ft 405 kts 338°
2026-04-28 06:46 42.27713 10.64247 32091 ft 405 kts 338°
2026-04-28 06:46 42.32954 10.61414 32093 ft 405 kts 338°
2026-04-28 06:47 42.38188 10.58581 32093 ft 405 kts 338°
2026-04-28 06:47 42.43425 10.55743 32093 ft 405 kts 338°
2026-04-28 06:48 42.48659 10.52898 32088 ft 406 kts 337°
2026-04-28 06:48 42.53878 10.50060 32082 ft 406 kts 337°
2026-04-28 06:49 42.59120 10.47203 32083 ft 406 kts 337°
2026-04-28 06:49 42.64357 10.44343 32082 ft 406 kts 337°
2026-04-28 06:50 42.69593 10.41479 32081 ft 405 kts 337°
2026-04-28 06:50 42.74766 10.38446 32084 ft 404 kts 332°
2026-04-28 06:51 42.79694 10.34755 32083 ft 404 kts 329°
2026-04-28 06:51 42.84576 10.30978 32081 ft 403 kts 329°
2026-04-28 06:52 42.89431 10.27262 32084 ft 402 kts 330°
2026-04-28 06:52 42.94323 10.23546 32082 ft 402 kts 330°
2026-04-28 06:53 42.99195 10.19855 32069 ft 395 kts 329°
2026-04-28 06:53 43.01564 10.18060 32066 ft 383 kts 329°
2026-04-28 06:53 43.03884 10.16299 32086 ft 380 kts 329°
2026-04-28 06:54 43.08507 10.12782 31913 ft 382 kts 329°
2026-04-28 06:54 43.10816 10.11021 31661 ft 377 kts 329°
2026-04-28 06:54 43.13098 10.09282 31293 ft 375 kts 329°
2026-04-28 06:54 43.15365 10.07553 30950 ft 371 kts 329°
2026-04-28 06:55 43.17612 10.05838 30588 ft 368 kts 329°
2026-04-28 06:55 43.19843 10.04133 30241 ft 366 kts 329°
2026-04-28 06:55 43.22054 10.02442 29887 ft 363 kts 329°
2026-04-28 06:55 43.24259 10.00754 29524 ft 360 kts 329°
2026-04-28 06:56 43.26441 9.99083 29156 ft 358 kts 329°
2026-04-28 06:56 43.28608 9.97421 28781 ft 356 kts 329°
2026-04-28 06:56 43.30760 9.95770 28416 ft 353 kts 329°
2026-04-28 06:56 43.32874 9.94147 28062 ft 351 kts 329°
2026-04-28 06:57 43.34999 9.92513 27700 ft 349 kts 329°
2026-04-28 06:57 43.37110 9.90889 27340 ft 347 kts 329°
2026-04-28 06:57 43.39204 9.89277 26984 ft 344 kts 329°
2026-04-28 06:57 43.41290 9.87670 26629 ft 343 kts 329°
2026-04-28 06:58 43.43364 9.86071 26278 ft 340 kts 329°
2026-04-28 06:58 43.45424 9.84481 25926 ft 338 kts 328°
2026-04-28 06:58 43.47471 9.82899 25579 ft 336 kts 328°
2026-04-28 06:58 43.49503 9.81328 25233 ft 334 kts 328°
2026-04-28 06:59 43.51525 9.79764 24887 ft 332 kts 328°
2026-04-28 06:59 43.53537 9.78207 24545 ft 330 kts 328°
2026-04-28 06:59 43.55534 9.76660 24202 ft 328 kts 328°
2026-04-28 06:59 43.57521 9.75120 23874 ft 326 kts 328°
2026-04-28 07:00 43.59492 9.73592 23533 ft 324 kts 328°
2026-04-28 07:00 43.61450 9.72070 23213 ft 322 kts 328°
2026-04-28 07:00 43.63397 9.70557 22880 ft 320 kts 328°
2026-04-28 07:00 43.65337 9.69048 22550 ft 319 kts 328°
2026-04-28 07:01 43.67260 9.67552 22222 ft 316 kts 328°
2026-04-28 07:01 43.69175 9.66060 21896 ft 315 kts 328°
2026-04-28 07:01 43.71075 9.64579 21577 ft 313 kts 328°
2026-04-28 07:01 43.72962 9.63107 21256 ft 311 kts 328°
2026-04-28 07:02 43.74841 9.61640 20943 ft 309 kts 328°
2026-04-28 07:02 43.76711 9.60180 20618 ft 307 kts 328°
2026-04-28 07:02 43.78565 9.58729 20306 ft 306 kts 328°
2026-04-28 07:02 43.80415 9.57283 19992 ft 304 kts 328°
2026-04-28 07:03 43.82252 9.55846 19681 ft 302 kts 328°
2026-04-28 07:03 43.84077 9.54417 19370 ft 301 kts 328°
2026-04-28 07:03 43.85896 9.52992 19051 ft 299 kts 328°
2026-04-28 07:03 43.87702 9.51576 18749 ft 297 kts 329°
2026-04-28 07:04 43.89500 9.50165 18443 ft 296 kts 328°
2026-04-28 07:04 43.91285 9.48763 18142 ft 294 kts 329°
2026-04-28 07:04 43.93059 9.47369 17834 ft 293 kts 329°
2026-04-28 07:04 43.94827 9.45977 17530 ft 291 kts 329°
2026-04-28 07:05 43.96563 9.44611 17228 ft 290 kts 329°
2026-04-28 07:05 43.98280 9.43157 16910 ft 288 kts 318°
2026-04-28 07:05 43.99562 9.41069 16634 ft 284 kts 303°
2026-04-28 07:05 44.00676 9.38793 16338 ft 286 kts 303°
2026-04-28 07:06 44.01795 9.36502 16032 ft 286 kts 303°
2026-04-28 07:06 44.02910 9.34247 15895 ft 278 kts 305°
2026-04-28 07:06 44.04256 9.32363 15757 ft 273 kts 321°
2026-04-28 07:06 44.05754 9.30822 15649 ft 264 kts 324°
2026-04-28 07:07 44.07421 9.29847 15530 ft 260 kts 351°
2026-04-28 07:07 44.09173 9.30003 15477 ft 251 kts 15°
2026-04-28 07:07 44.10710 9.31092 15353 ft 248 kts 37°
2026-04-28 07:07 44.11866 9.32888 15269 ft 252 kts 51°
2026-04-28 07:08 44.12948 9.34861 15086 ft 260 kts 50°
2026-04-28 07:08 44.14330 9.36434 14783 ft 257 kts 19°
2026-04-28 07:08 44.16052 9.36741 14406 ft 253 kts 347°
2026-04-28 07:08 44.17687 9.35855 14048 ft 251 kts 326°
2026-04-28 07:09 44.19093 9.34457 13750 ft 245 kts 321°
2026-04-28 07:09 44.20419 9.33014 13434 ft 239 kts 321°
2026-04-28 07:09 44.21728 9.31587 12943 ft 239 kts 321°
2026-04-28 07:09 44.23047 9.30156 12432 ft 240 kts 321°
2026-04-28 07:10 44.24369 9.28742 11970 ft 239 kts 321°
2026-04-28 07:10 44.25690 9.27339 11503 ft 238 kts 322°
2026-04-28 07:10 44.27004 9.25947 11051 ft 237 kts 321°
2026-04-28 07:10 44.28053 9.24221 10522 ft 235 kts 290°
2026-04-28 07:11 44.28344 9.22018 10065 ft 231 kts 269°
2026-04-28 07:11 44.28300 9.19790 9612 ft 229 kts 266°
2026-04-28 07:11 44.28218 9.17573 9152 ft 229 kts 266°
2026-04-28 07:11 44.28143 9.15362 8708 ft 228 kts 266°
2026-04-28 07:12 44.28075 9.13164 8285 ft 225 kts 265°
2026-04-28 07:12 44.28009 9.10986 7861 ft 225 kts 266°
2026-04-28 07:12 44.27946 9.08807 7520 ft 224 kts 266°
2026-04-28 07:12 44.27885 9.06648 7211 ft 222 kts 266°
2026-04-28 07:13 44.27824 9.04504 6877 ft 221 kts 266°
2026-04-28 07:13 44.27767 9.02427 6767 ft 211 kts 266°
2026-04-28 07:13 44.27710 9.00409 6750 ft 205 kts 266°
2026-04-28 07:13 44.27654 8.98435 6747 ft 204 kts 266°
2026-04-28 07:14 44.27598 8.96437 6759 ft 208 kts 266°
2026-04-28 07:14 44.27540 8.94401 6769 ft 211 kts 266°
2026-04-28 07:14 44.27481 8.92366 6764 ft 210 kts 266°
2026-04-28 07:14 44.27422 8.90340 6760 ft 209 kts 266°
2026-04-28 07:15 44.27363 8.88321 6757 ft 207 kts 266°
2026-04-28 07:15 44.27305 8.86313 6755 ft 207 kts 266°
2026-04-28 07:15 44.27245 8.84304 6755 ft 207 kts 266°
2026-04-28 07:15 44.27186 8.82295 6756 ft 207 kts 266°
2026-04-28 07:16 44.27127 8.80283 6757 ft 208 kts 266°
2026-04-28 07:16 44.27067 8.78270 6759 ft 208 kts 266°
2026-04-28 07:16 44.27006 8.76254 6759 ft 208 kts 266°
2026-04-28 07:16 44.26944 8.74213 6652 ft 215 kts 266°
2026-04-28 07:17 44.26879 8.72106 6393 ft 216 kts 266°
2026-04-28 07:17 44.26847 8.70054 6142 ft 208 kts 275°
2026-04-28 07:17 44.27181 8.68153 5946 ft 196 kts 284°
2026-04-28 07:17 44.27544 8.66377 5744 ft 185 kts 283°
2026-04-28 07:18 44.27879 8.64672 5550 ft 181 kts 283°
2026-04-28 07:18 44.28207 8.62978 5374 ft 182 kts 283°
2026-04-28 07:18 44.28545 8.61269 5192 ft 183 kts 288°
2026-04-28 07:18 44.29306 8.59877 4937 ft 189 kts 329°
2026-04-28 07:19 44.30584 8.59579 4675 ft 192 kts 13°
2026-04-28 07:19 44.31878 8.60087 4421 ft 195 kts 15°
2026-04-28 07:19 44.33188 8.60579 4111 ft 195 kts 15°
2026-04-28 07:19 44.34486 8.61086 3799 ft 191 kts 22°
2026-04-28 07:20 44.35452 8.62213 3509 ft 175 kts 58°
2026-04-28 07:20 44.36039 8.63620 3310 ft 164 kts 60°
2026-04-28 07:20 44.36621 8.65007 2968 ft 163 kts 60°
2026-04-28 07:20 44.37182 8.66347 2748 ft 156 kts 60°
2026-04-28 07:21 44.37729 8.67657 2534 ft 157 kts 60°
2026-04-28 07:21 44.38277 8.68978 2313 ft 157 kts 61°
2026-04-28 07:21 44.38821 8.70299 2077 ft 156 kts 61°
2026-04-28 07:22 44.39893 8.72910 1611 ft 154 kts 61°
2026-04-28 07:22 44.40425 8.74207 1458 ft 155 kts 60°
2026-04-28 07:22 44.40968 8.75480 1288 ft 151 kts 58°
2026-04-28 07:22 44.41551 8.76703 948 ft 152 kts 59°
2026-04-28 07:23 44.41963 8.78045 672 ft 149 kts 75°
2026-04-28 07:23 44.42092 8.79471 435 ft 148 kts 94°
2026-04-28 07:23 44.41862 8.80847 277 ft 143 kts 106°
2026-04-28 07:23 44.41610 8.82161 89 ft 137 kts 105°
2026-04-28 07:24 44.41364 8.83359 23 ft 115 kts 107°
2026-04-28 07:24 44.41257 8.83934 18 ft 24 kts 105°
2026-04-28 07:24 44.41214 8.84151 20 ft 23 kts 102°
2026-04-28 07:24 44.41274 8.84329 21 ft 18 kts 51°
2026-04-28 07:25 44.41340 8.84442 19 ft 15 kts 52°
2026-04-28 07:25 44.41398 8.84545 20 ft 10 kts 52°
2026-04-28 07:25 44.41414 8.84635 19 ft 10 kts 94°
2026-04-28 07:25 44.41402 8.84724 19 ft 8 kts 102°
2026-04-28 07:26 44.41375 8.84778 19 ft 8 kts 184°
2026-04-28 07:26 44.41326 8.84765 21 ft 3 kts 194°
2026-04-28 07:26 44.41324 8.84764 19 ft 0 kts 194°